Minot, ND

10:15 PM CDT on September 21, 2017 (GMT -0500)
Minot International

Weather History for KMOT - May, 2013

Change the Weather History Date:

Wednesday, May 15, 2013

  Actual Average Record
Temperature  
Mean Temperature 63 °F 55 °F  
Max Temperature 76 °F 67 °F 93 °F (1987)
Min Temperature 50 °F 43 °F 19 °F (1921)
Degree Days  
Heating Degree Days 2    
Cooling Degree Days 0 0  
Month to date cooling degree days 10 0  
Year to date cooling degree days 10 1  
Growing Degree Days 12 (Base 50)    
Moisture  
Dew Point 37 °F    
Average Humidity 44    
Maximum Humidity 66    
Minimum Humidity 21    
Precipitation  
Precipitation 0.00 in 0.08 in 1.29 in (1966)
Month to date precipitation 0.31 1.06  
Year to date precipitation 1.93 3.95  
Sea Level Pressure  
Sea Level Pressure 29.85 in    
Wind  
Wind Speed 10 mph (West)    
Max Wind Speed 23 mph    
Max Gust Speed 28 mph    
Visibility 10 miles    
Events      
T = Trace of Precipitation, MM = Missing Value Source: NWS Daily Summary

Daily Weather History Graph

Daily Weather History Graph

Search for Another Location

Airport or City:

Trip Planner

Search our weather history database for the weather conditions in past years. The results will help you decide how hot, cold, wet, or windy it might be!

Date:

Astronomy

May. 15, 2013 Rise Set
Actual Time 6:05 AM CDT 9:18 PM CDT
Civil Twilight 5:27 AM CDT 9:56 PM CDT
Nautical Twilight 4:38 AM CDT 10:45 PM CDT
Astronomical Twilight 3:37 AM CDT 11:48 PM CDT
Moon 10:47 AM CDT (5/15) 1:02 AM CDT (5/15)
Length of Visible Light 16h 28m
Length of Day
15h 13m
Waxing Crescent, 27% of the Moon is Illuminated
May 15
Waxing Crescent
May 17
First Quarter
May 24
Full
May 31
Last Quarter
Jun 8
New

Hourly Weather History & Observations

Time (CDT) Temp. Dew Point Humidity Pressure Visibility Wind Dir Wind Speed Gust Speed Precip Events Conditions
12:54 AM 54.0 °F 37.9 °F 55% 29.81 in 10.0 mi SW 8.1 mph - N/A   Clear
1:54 AM 54.0 °F 37.9 °F 55% 29.82 in 10.0 mi SW 9.2 mph - N/A   Clear
2:54 AM 54.0 °F 37.9 °F 55% 29.83 in 10.0 mi SW 10.4 mph - N/A   Clear
3:54 AM 55.0 °F 37.9 °F 53% 29.82 in 10.0 mi SW 9.2 mph - N/A   Clear
4:54 AM 53.1 °F 39.0 °F 59% 29.84 in 10.0 mi SW 6.9 mph - N/A   Clear
5:54 AM 51.1 °F 39.0 °F 63% 29.85 in 10.0 mi WSW 8.1 mph - N/A   Clear
6:54 AM 50.0 °F 39.9 °F 68% 29.86 in 10.0 mi SW 8.1 mph - N/A   Clear
7:54 AM 55.9 °F 39.9 °F 55% 29.87 in 10.0 mi WSW 5.8 mph - N/A   Clear
8:54 AM 61.0 °F 41.0 °F 48% 29.88 in 10.0 mi WNW 13.8 mph - N/A   Clear
9:54 AM 64.9 °F 39.9 °F 40% 29.89 in 10.0 mi West 10.4 mph - N/A   Clear
10:54 AM 69.1 °F 39.0 °F 33% 29.88 in 10.0 mi West 9.2 mph - N/A   Clear
11:54 AM 70.0 °F 37.0 °F 30% 29.88 in 10.0 mi West 11.5 mph 19.6 mph N/A   Clear
12:54 PM 73.0 °F 36.0 °F 26% 29.87 in 10.0 mi WNW 15.0 mph 25.3 mph N/A   Clear
1:54 PM 73.9 °F 35.1 °F 24% 29.87 in 10.0 mi West 18.4 mph 26.5 mph N/A   Scattered Clouds
2:54 PM 73.9 °F 34.0 °F 23% 29.86 in 10.0 mi WNW 16.1 mph 23.0 mph N/A   Partly Cloudy
3:54 PM 73.0 °F 34.0 °F 24% 29.86 in 10.0 mi West 11.5 mph 19.6 mph N/A   Partly Cloudy
4:54 PM 73.9 °F 33.1 °F 22% 29.84 in 10.0 mi West 12.7 mph - N/A   Partly Cloudy
5:54 PM 75.0 °F 34.0 °F 22% 29.84 in 10.0 mi WNW 12.7 mph 17.3 mph N/A   Scattered Clouds
6:54 PM 72.0 °F 36.0 °F 27% 29.85 in 10.0 mi WNW 9.2 mph - N/A   Clear
7:54 PM 70.0 °F 36.0 °F 29% 29.85 in 7.0 mi NW 9.2 mph - N/A   Clear
8:54 PM 68.0 °F 37.0 °F 32% 29.85 in 10.0 mi WNW 5.8 mph - N/A   Clear
9:54 PM 57.9 °F 39.0 °F 49% 29.86 in 10.0 mi WNW 6.9 mph - N/A   Clear
10:54 PM 57.9 °F 37.9 °F 47% 29.87 in 10.0 mi SW 6.9 mph - N/A   Clear
11:54 PM 57.0 °F 36.0 °F 45% 29.87 in 10.0 mi SW 8.1 mph - N/A   Clear